KB1JDX Weather Reports


Display with metric or nautical units.
time (UTC)temp
F
wind
direction
speed
MPH
gust
MPH
rain 1hr
in
rain 24hr
in
rain mn
in
humidity
%
barometer
mb
20170430010602 68 343 4.0 12.0 0.00 0.00 0.00 59 1016.5
20170430000603 70 300 6.0 12.0 0.00 0.00 0.00 59 1015.2
20170429230602 74 319 7.0 13.0 0.00 0.00 0.00 55 1013.6
20170429220604 80 309 0.0 13.0 0.00 0.00 0.00 48 1013.1
20170429210604 83 120 1.0 14.0 0.00 0.00 0.00 51 1011.8
20170429200604 85 302 6.0 14.0 0.00 0.00 0.00 48 1011.6
20170429190604 85 252 9.0 16.0 0.00 0.00 0.00 48 1010.7
20170429180603 82 301 0.0 15.0 0.00 0.00 0.00 55 1011.0
20170429170603 80 200 4.0 10.0 0.00 0.00 0.00 62 1011.8
20170429160604 80 219 8.0 11.0 0.00 0.00 0.00 58 1013.0
20170429150603 76 211 5.0 11.0 0.00 0.00 0.00 60 1014.5
20170429140604 72 173 0.0 5.0 0.00 0.00 0.00 63 1014.6
20170429130604 67 200 0.0 6.0 0.00 0.00 0.00 70 1014.9
20170429120603 62 191 0.0 1.0 0.00 0.00 0.00 76 1015.3
20170429110605 59 195 0.0 0.0 0.00 0.00 0.00 77 1015.6
20170429100604 58 197 0.0 0.0 0.00 0.01 0.00 77 1014.8
20170429090605 60 197 0.0 0.0 0.00 0.01 0.00 77 1016.2
20170429080605 61 190 0.0 2.0 0.00 0.01 0.00 77 1016.7
20170429070605 60 187 0.0 0.0 0.00 0.01 0.00 77 1015.6
20170429060605 61 187 0.0 0.0 0.00 0.01 0.00 77 1016.2
20170429050604 61 187 0.0 0.0 0.00 0.01 0.00 76 1016.4
20170429040604 63 187 0.0 1.0 0.00 0.01 0.00 76 1016.5
20170429030605 65 187 0.0 1.0 0.00 0.01 0.01 74 1016.3
20170429020605 68 194 0.0 2.0 0.00 0.01 0.01 74 1016.7